Skip Page Navigation
NASA JPL Caltech
NASA Logo - Jet Propulsion Laboratory + View the NASA Portal
+ Center for Near-Earth Object Studies
JPL Home Earth Solar System Stars & Galaxies Technology
JPL Solar System Dynamics
BODIES ORBITS EPHEMERIDES TOOLS PHYSICAL DATA DISCOVERY FAQ SITE MAP
IMPORTANT: The SSD Announcement email list is now available. Major changes are coming in the near future, including possible hostname and/or URL changes. To be notified of such changes, subscribe to this email list.

Please visit this page for more details.


JPL Small-Body Database Browser
Search: [ help ]  
18892 (2000 ET137)
Classification: Main-belt Asteroid          SPK-ID: 2018892
Ephemeris | Orbit Diagram | Orbital Elements | Mission Design | Physical Parameters | Discovery Circumstances | Close-Approach Data ]

[ show orbit diagram ]
Orbital Elements at Epoch 2458600.5 (2019-Apr-27.0) TDB
Reference: JPL 28 (heliocentric ecliptic J2000)
 Element Value Uncertainty (1-sigma)   Units 
e .1710086821427813 3.4125e-08  
a 2.668891720328503 1.295e-08 au
q 2.212488064453345 9.0169e-08 au
i 13.28438637425048 4.0949e-06 deg
node 80.04843785542288 2.0172e-05 deg
peri 200.2093315622776 2.4515e-05 deg
M 90.31317816016237 1.4718e-05 deg
tp 2458200.975438770519
(2018-Mar-23.47543877)
6.4923e-05 TDB
period 1592.556534634907
4.36
1.1591e-05
3.173e-08
d
yr
n .2260516296726193 1.6453e-09 deg/d
Q 3.125295376203661 1.5165e-08 au
  Orbit Determination Parameters
   # obs. used (total)      1919  
   data-arc span      9954 days (27.25 yr)  
   first obs. used      1992-09-04  
   last obs. used      2019-12-06  
   planetary ephem.      DE431  
   SB-pert. ephem.      SB431-N16  
   condition code      0  
   norm. resid. RMS      .45038  
   source      ORB  
   producer      Otto Matic  
   solution date      2019-Dec-14 00:32:25  

Additional Information
 Earth MOID = 1.20024 au 
 Jupiter MOID = 2.0101 au 
 T_jup = 3.323 
[ show covariance matrix ]

Ephemeris | Orbit Diagram | Orbital Elements | Mission Design | Physical Parameters | Discovery Circumstances | Close-Approach Data ]

Physical Parameter Table
Parameter Symbol Value Units Sigma Reference Notes
absolute magnitude H 13.6   n/a MPO319321  
diameter diameter 8.232 km 1.799 urn:nasa:pds:neowise_diameters_albedos::2.0[mainbelt] (http://adsabs.harvard.edu/abs/2015ApJ...814..117N)  
rotation period rot_per 186.790 h n/a LCDB (Rev. 2019-January); Warner et al., 2009 Result based on less than full coverage, so that the period may be wrong by 30 percent or so.
Published Reference List:
[Waszczak, A.; Chang, C.-K.; Ofeck, E.O.; Laher, F.; et al. (2015) Astron. J. 150, A75.]
geometric albedo albedo 0.095   0.049 urn:nasa:pds:neowise_diameters_albedos::2.0[mainbelt] (http://adsabs.harvard.edu/abs/2015ApJ...814..117N)  

18892 (2000 ET137)          Discovered 2000-Mar-09 by LINEAR at Socorro
Reference: 20001111/Numbers.arcLast Updated: 2004-04-19

[ show close-approach data ]
Alternate Designations
 2000 ET137 = 1992 RL = 2000 GP136 
Ephemeris | Orbit Diagram | Orbital Elements | Mission Design | Physical Parameters | Discovery Circumstances | Close-Approach Data ]
ABOUT SSD CREDITS/AWARDS PRIVACY/COPYRIGHT GLOSSARY LINKS
FirstGov 2020-Jan-19 02:30 UT
(server date/time)  
NASA Home Page
Site Manager:   Ryan S. Park
Webmaster  Alan B. Chamberlin